FDX1289 KPBI-KMEM

Flight info

Callsign FDX1289
Flight time 1h 58m
Altitude 34000
Route TBIRD7 SMELZ Q116 GOOGY WASER VANZE3
Aircraft A306/H-SDE3FGHIRWY/LB1

Departure

Time 2026-04-23 20:31
Airport Palm Beach International Airport (KPBI)

Arrival

Time 2026-04-23 22:29
Airport Memphis International Airport (KMEM)
Time Latitude Longitude Altitude Speed Heading
2026-04-23 20:06 26.68491 -80.07949 28 ft 0 kts 92°
2026-04-23 20:17 26.68492 -80.07953 28 ft 2 kts 84°
2026-04-23 20:17 26.68493 -80.07957 28 ft 3 kts 106°
2026-04-23 20:18 26.68499 -80.07979 26 ft 3 kts 109°
2026-04-23 20:18 26.68506 -80.08000 26 ft 3 kts 121°
2026-04-23 20:18 26.68517 -80.08016 26 ft 3 kts 153°
2026-04-23 20:18 26.68528 -80.08020 26 ft 1 kts 183°
2026-04-23 20:19 26.68533 -80.08020 27 ft 0 kts 183°
2026-04-23 20:21 26.68514 -80.08021 26 ft 6 kts 181°
2026-04-23 20:22 26.68474 -80.08021 28 ft 5 kts 180°
2026-04-23 20:22 26.68440 -80.08022 28 ft 5 kts 183°
2026-04-23 20:22 26.68407 -80.08040 28 ft 5 kts 222°
2026-04-23 20:22 26.68389 -80.08067 28 ft 4 kts 232°
2026-04-23 20:23 26.68372 -80.08086 28 ft 5 kts 220°
2026-04-23 20:23 26.68340 -80.08102 28 ft 4 kts 205°
2026-04-23 20:23 26.68311 -80.08159 28 ft 15 kts 263°
2026-04-23 20:23 26.68317 -80.08265 28 ft 13 kts 275°
2026-04-23 20:24 26.68325 -80.08358 28 ft 11 kts 270°
2026-04-23 20:24 26.68326 -80.08437 28 ft 10 kts 272°
2026-04-23 20:24 26.68328 -80.08518 28 ft 12 kts 268°
2026-04-23 20:24 26.68331 -80.08613 28 ft 13 kts 277°
2026-04-23 20:25 26.68337 -80.08726 28 ft 16 kts 272°
2026-04-23 20:25 26.68338 -80.08855 28 ft 17 kts 269°
2026-04-23 20:25 26.68346 -80.08988 28 ft 17 kts 273°
2026-04-23 20:25 26.68343 -80.09112 28 ft 15 kts 270°
2026-04-23 20:26 26.68353 -80.09222 28 ft 13 kts 279°
2026-04-23 20:26 26.68363 -80.09319 28 ft 12 kts 275°
2026-04-23 20:26 26.68368 -80.09408 28 ft 11 kts 273°
2026-04-23 20:26 26.68373 -80.09498 28 ft 14 kts 274°
2026-04-23 20:27 26.68380 -80.09631 28 ft 20 kts 271°
2026-04-23 20:27 26.68384 -80.09801 28 ft 22 kts 272°
2026-04-23 20:27 26.68390 -80.09967 28 ft 21 kts 273°
2026-04-23 20:27 26.68398 -80.10124 28 ft 19 kts 274°
2026-04-23 20:28 26.68403 -80.10269 28 ft 18 kts 271°
2026-04-23 20:28 26.68404 -80.10405 28 ft 17 kts 266°
2026-04-23 20:28 26.68393 -80.10519 28 ft 12 kts 279°
2026-04-23 20:28 26.68419 -80.10638 28 ft 22 kts 282°
2026-04-23 20:29 26.68408 -80.10733 27 ft 7 kts 189°
2026-04-23 20:29 26.68380 -80.10736 27 ft 0 kts 183°
2026-04-23 20:29 26.68379 -80.10736 28 ft 2 kts 183°
2026-04-23 20:29 26.68327 -80.10723 28 ft 8 kts 141°
2026-04-23 20:30 26.68315 -80.10670 28 ft 7 kts 95°
2026-04-23 20:30 26.68266 -80.09593 29 ft 144 kts 92°
2026-04-23 20:30 26.68230 -80.08288 567 ft 179 kts 91°
2026-04-23 20:31 26.68242 -80.06840 1746 ft 194 kts 88°
2026-04-23 20:31 26.68415 -80.05279 2316 ft 219 kts 79°
2026-04-23 20:31 26.68908 -80.03568 2758 ft 241 kts 68°
2026-04-23 20:31 26.69670 -80.01870 3423 ft 248 kts 64°
2026-04-23 20:32 26.70505 -80.00147 4142 ft 254 kts 63°
2026-04-23 20:32 26.71529 -79.98522 4854 ft 260 kts 47°
2026-04-23 20:32 26.73064 -79.97415 5577 ft 268 kts 21°
2026-04-23 20:32 26.74907 -79.96943 6316 ft 273 kts
2026-04-23 20:33 26.76805 -79.96909 7034 ft 277 kts 351°
2026-04-23 20:33 26.78580 -79.97692 7793 ft 279 kts 325°
2026-04-23 20:33 26.79891 -79.99291 8677 ft 280 kts 298°
2026-04-23 20:33 26.80635 -80.01270 9712 ft 278 kts 289°
2026-04-23 20:34 26.81261 -80.03343 10516 ft 285 kts 288°
2026-04-23 20:34 26.81915 -80.05539 10861 ft 307 kts 288°
2026-04-23 20:34 26.82612 -80.07847 11178 ft 327 kts 288°
2026-04-23 20:34 26.83371 -80.10330 11477 ft 346 kts 289°
2026-04-23 20:35 26.84172 -80.12936 11881 ft 359 kts 289°
2026-04-23 20:35 26.84996 -80.15611 12504 ft 365 kts 289°
2026-04-23 20:35 26.85830 -80.18319 13187 ft 369 kts 289°
2026-04-23 20:35 26.86671 -80.21046 13899 ft 372 kts 289°
2026-04-23 20:36 26.87511 -80.23770 14531 ft 375 kts 289°
2026-04-23 20:36 26.88369 -80.26560 15148 ft 378 kts 289°
2026-04-23 20:36 26.89226 -80.29345 15748 ft 383 kts 288°
2026-04-23 20:36 26.90185 -80.32168 16353 ft 387 kts 294°
2026-04-23 20:37 26.91592 -80.34763 16980 ft 393 kts 307°
2026-04-23 20:37 26.93533 -80.36911 17561 ft 400 kts 320°
2026-04-23 20:37 26.95966 -80.38495 18127 ft 408 kts 333°
2026-04-23 20:37 26.98609 -80.39687 18649 ft 412 kts 336°
2026-04-23 20:38 27.01292 -80.40817 19138 ft 415 kts 337°
2026-04-23 20:38 27.04015 -80.41965 19664 ft 418 kts 336°
2026-04-23 20:38 27.06749 -80.43128 20176 ft 420 kts 336°
2026-04-23 20:38 27.09468 -80.44291 20697 ft 422 kts 336°
2026-04-23 20:39 27.12241 -80.45482 21196 ft 425 kts 336°
2026-04-23 20:39 27.15013 -80.46678 21674 ft 427 kts 336°
2026-04-23 20:39 27.17765 -80.47915 22124 ft 429 kts 335°
2026-04-23 20:39 27.20523 -80.49183 22596 ft 432 kts 335°
2026-04-23 20:40 27.23327 -80.50477 23048 ft 434 kts 335°
2026-04-23 20:40 27.26112 -80.51762 23478 ft 437 kts 335°
2026-04-23 20:40 27.28942 -80.53067 23861 ft 439 kts 335°
2026-04-23 20:40 27.31785 -80.54395 24213 ft 442 kts 333°
2026-04-23 20:41 27.34575 -80.55787 24565 ft 444 kts 333°
2026-04-23 20:41 27.37417 -80.57234 24907 ft 446 kts 332°
2026-04-23 20:41 27.40217 -80.58661 25235 ft 448 kts 332°
2026-04-23 20:41 27.43080 -80.60119 25561 ft 450 kts 332°
2026-04-23 20:42 27.45920 -80.61566 25889 ft 453 kts 332°
2026-04-23 20:42 27.48820 -80.63047 26197 ft 454 kts 331°
2026-04-23 20:42 27.51589 -80.64710 26501 ft 453 kts 324°
2026-04-23 20:42 27.54132 -80.66803 26811 ft 451 kts 317°
2026-04-23 20:43 27.56504 -80.69095 27112 ft 452 kts 315°
2026-04-23 20:43 27.58876 -80.71450 27410 ft 454 kts 315°
2026-04-23 20:43 27.61266 -80.73828 27704 ft 456 kts 315°
2026-04-23 20:43 27.63637 -80.76185 27984 ft 457 kts 315°
2026-04-23 20:44 27.66037 -80.78567 28314 ft 457 kts 315°
2026-04-23 20:44 27.68398 -80.80910 28736 ft 456 kts 315°
2026-04-23 20:44 27.70796 -80.83291 29151 ft 454 kts 315°
2026-04-23 20:44 27.73160 -80.85638 29577 ft 452 kts 314°
2026-04-23 20:45 27.75522 -80.87985 29997 ft 451 kts 314°
2026-04-23 20:45 27.77849 -80.90299 30357 ft 450 kts 314°
2026-04-23 20:45 27.80202 -80.92639 30736 ft 449 kts 314°
2026-04-23 20:45 27.82588 -80.94948 31117 ft 448 kts 317°
2026-04-23 20:46 27.85077 -80.97046 31500 ft 448 kts 319°
2026-04-23 20:46 27.87613 -80.99098 31868 ft 446 kts 319°
2026-04-23 20:46 27.90120 -81.01117 32230 ft 445 kts 319°
2026-04-23 20:46 27.92650 -81.03156 32583 ft 443 kts 319°
2026-04-23 20:47 27.95156 -81.05178 32918 ft 442 kts 319°
2026-04-23 20:47 27.97636 -81.07182 33235 ft 441 kts 319°
2026-04-23 20:47 28.00140 -81.09207 33575 ft 441 kts 319°
2026-04-23 20:47 28.02619 -81.11213 33869 ft 440 kts 319°
2026-04-23 20:48 28.05114 -81.13236 34069 ft 440 kts 318°
2026-04-23 20:48 28.07482 -81.15401 34087 ft 428 kts 311°
2026-04-23 20:48 28.09428 -81.17818 34093 ft 415 kts 302°
2026-04-23 20:48 28.10985 -81.20564 34094 ft 408 kts 293°
2026-04-23 20:49 28.12743 -81.26548 34091 ft 400 kts 276°
2026-04-23 20:49 28.12843 -81.32813 34089 ft 399 kts 266°
2026-04-23 20:50 28.12479 -81.39078 34090 ft 399 kts 265°
2026-04-23 20:50 28.12119 -81.45352 34083 ft 400 kts 265°
2026-04-23 20:51 28.11763 -81.51639 34086 ft 400 kts 265°
2026-04-23 20:51 28.11409 -81.57905 34083 ft 399 kts 265°
2026-04-23 20:52 28.11111 -81.63145 34082 ft 400 kts 265°
2026-04-23 20:52 28.10753 -81.69411 34079 ft 399 kts 265°
2026-04-23 20:53 28.10392 -81.75682 34082 ft 399 kts 265°
2026-04-23 20:53 28.10026 -81.81967 34083 ft 399 kts 265°
2026-04-23 20:54 28.09660 -81.88226 34078 ft 399 kts 265°
2026-04-23 20:54 28.09288 -81.94531 34078 ft 399 kts 265°
2026-04-23 20:55 28.08953 -82.00776 34068 ft 399 kts 268°
2026-04-23 20:55 28.09689 -82.07026 34054 ft 404 kts 284°
2026-04-23 20:56 28.12184 -82.12740 34059 ft 413 kts 301°
2026-04-23 20:56 28.16332 -82.17385 34071 ft 426 kts 316°
2026-04-23 20:57 28.21148 -82.21320 34064 ft 429 kts 319°
2026-04-23 20:57 28.26060 -82.25162 34065 ft 429 kts 319°
2026-04-23 20:58 28.30957 -82.29023 34066 ft 430 kts 319°
2026-04-23 20:58 28.35849 -82.32929 34071 ft 430 kts 319°
2026-04-23 20:59 28.40762 -82.36871 34072 ft 431 kts 318°
2026-04-23 20:59 28.45635 -82.40785 34075 ft 431 kts 318°
2026-04-23 21:00 28.50535 -82.44723 34074 ft 432 kts 318°
2026-04-23 21:00 28.55457 -82.48683 34054 ft 433 kts 318°
2026-04-23 21:01 28.60371 -82.52639 34057 ft 433 kts 318°
2026-04-23 21:01 28.65282 -82.56598 34060 ft 432 kts 318°
2026-04-23 21:02 28.70192 -82.60563 34058 ft 432 kts 317°
2026-04-23 21:02 28.75083 -82.64517 34055 ft 432 kts 317°
2026-04-23 21:03 28.79959 -82.68463 34058 ft 432 kts 317°
2026-04-23 21:03 28.84853 -82.72429 34057 ft 432 kts 317°
2026-04-23 21:04 28.89750 -82.76401 34056 ft 432 kts 317°
2026-04-23 21:04 28.94659 -82.80388 34056 ft 432 kts 317°
2026-04-23 21:05 28.99531 -82.84350 34060 ft 432 kts 317°
2026-04-23 21:05 29.04442 -82.88348 34055 ft 432 kts 317°
2026-04-23 21:06 29.09337 -82.92338 34058 ft 431 kts 317°
2026-04-23 21:06 29.14204 -82.96309 34065 ft 431 kts 317°
2026-04-23 21:07 29.19118 -83.00324 34059 ft 432 kts 318°
2026-04-23 21:07 29.24003 -83.04322 34064 ft 433 kts 318°
2026-04-23 21:08 29.28906 -83.08340 34056 ft 436 kts 319°
2026-04-23 21:08 29.33841 -83.12388 34048 ft 438 kts 320°
2026-04-23 21:09 29.38841 -83.16493 34049 ft 441 kts 320°
2026-04-23 21:09 29.43838 -83.20600 34053 ft 443 kts 321°
2026-04-23 21:10 29.48837 -83.24713 34050 ft 445 kts 321°
2026-04-23 21:10 29.53876 -83.28866 34050 ft 447 kts 322°
2026-04-23 21:11 29.58946 -83.33048 34055 ft 449 kts 322°
2026-04-23 21:11 29.64028 -83.37246 34057 ft 449 kts 322°
2026-04-23 21:12 29.69085 -83.41429 34060 ft 450 kts 323°
2026-04-23 21:12 29.74150 -83.45626 34065 ft 450 kts 323°
2026-04-23 21:13 29.79250 -83.49855 34068 ft 450 kts 323°
2026-04-23 21:13 29.84323 -83.54067 34066 ft 451 kts 323°
2026-04-23 21:14 29.89442 -83.58321 34064 ft 452 kts 324°
2026-04-23 21:14 29.94526 -83.62548 34065 ft 452 kts 324°
2026-04-23 21:15 29.99604 -83.66778 34064 ft 451 kts 324°
2026-04-23 21:15 30.04679 -83.71012 34062 ft 450 kts 324°
2026-04-23 21:16 30.09771 -83.75265 34064 ft 450 kts 324°
2026-04-23 21:16 30.14826 -83.79492 34064 ft 449 kts 324°
2026-04-23 21:17 30.19869 -83.83717 34066 ft 448 kts 324°
2026-04-23 21:17 30.24908 -83.87946 34064 ft 448 kts 324°
2026-04-23 21:18 30.29950 -83.92182 34068 ft 448 kts 324°
2026-04-23 21:18 30.34988 -83.96421 34069 ft 447 kts 324°
2026-04-23 21:19 30.40006 -84.00648 34067 ft 446 kts 324°
2026-04-23 21:19 30.45012 -84.04871 34073 ft 446 kts 324°
2026-04-23 21:20 30.50038 -84.09116 34067 ft 446 kts 324°
2026-04-23 21:20 30.55038 -84.13345 34067 ft 446 kts 324°
2026-04-23 21:21 30.60050 -84.17590 34068 ft 446 kts 324°
2026-04-23 21:21 30.65050 -84.21830 34062 ft 446 kts 324°
2026-04-23 21:22 30.70063 -84.26086 34068 ft 446 kts 324°
2026-04-23 21:22 30.75065 -84.30339 34070 ft 445 kts 324°
2026-04-23 21:23 30.80071 -84.34602 34065 ft 445 kts 324°
2026-04-23 21:23 30.85041 -84.38840 34064 ft 444 kts 324°
2026-04-23 21:24 30.90037 -84.43103 34064 ft 444 kts 324°
2026-04-23 21:24 30.95024 -84.47366 34062 ft 444 kts 324°
2026-04-23 21:25 31.00008 -84.51631 34060 ft 444 kts 324°
2026-04-23 21:25 31.04974 -84.55886 34058 ft 445 kts 324°
2026-04-23 21:26 31.09969 -84.60173 34073 ft 445 kts 324°
2026-04-23 21:26 31.14946 -84.64449 34065 ft 445 kts 324°
2026-04-23 21:27 31.19936 -84.68743 34068 ft 445 kts 324°
2026-04-23 21:27 31.24927 -84.73043 34064 ft 445 kts 324°
2026-04-23 21:28 31.29886 -84.77321 34061 ft 445 kts 324°
2026-04-23 21:28 31.34884 -84.81640 34061 ft 445 kts 324°
2026-04-23 21:29 31.39866 -84.85950 34057 ft 445 kts 324°
2026-04-23 21:29 31.44838 -84.90256 34062 ft 445 kts 324°
2026-04-23 21:30 31.49814 -84.94572 34059 ft 445 kts 324°
2026-04-23 21:30 31.54778 -84.98883 34062 ft 445 kts 324°
2026-04-23 21:31 31.59758 -85.03221 34055 ft 445 kts 324°
2026-04-23 21:31 31.64712 -85.07560 34066 ft 445 kts 323°
2026-04-23 21:32 31.69657 -85.11898 34072 ft 445 kts 324°
2026-04-23 21:32 31.74617 -85.16252 34063 ft 445 kts 323°
2026-04-23 21:33 31.79565 -85.20602 34062 ft 445 kts 323°
2026-04-23 21:33 31.84521 -85.24962 34062 ft 444 kts 323°
2026-04-23 21:34 31.89471 -85.29325 34061 ft 444 kts 323°
2026-04-23 21:34 31.94411 -85.33685 34062 ft 444 kts 323°
2026-04-23 21:35 31.99360 -85.38059 34059 ft 444 kts 323°
2026-04-23 21:35 32.04287 -85.42420 34055 ft 444 kts 323°
2026-04-23 21:36 32.11713 -85.49003 34061 ft 444 kts 323°
2026-04-23 21:37 32.16641 -85.53380 34057 ft 444 kts 323°
2026-04-23 21:37 32.21571 -85.57764 34056 ft 444 kts 323°
2026-04-23 21:38 32.26495 -85.62150 34059 ft 444 kts 323°
2026-04-23 21:38 32.30609 -85.65819 34053 ft 444 kts 323°
2026-04-23 21:39 32.35542 -85.70223 34059 ft 444 kts 323°
2026-04-23 21:39 32.40472 -85.74630 34052 ft 444 kts 323°
2026-04-23 21:40 32.45387 -85.79030 34042 ft 443 kts 323°
2026-04-23 21:40 32.50290 -85.83426 34042 ft 443 kts 323°
2026-04-23 21:41 32.55196 -85.87832 34047 ft 443 kts 323°
2026-04-23 21:41 32.60134 -85.92273 34046 ft 443 kts 322°
2026-04-23 21:42 32.65042 -85.96693 34043 ft 443 kts 322°
2026-04-23 21:42 32.69962 -86.01127 34050 ft 443 kts 322°
2026-04-23 21:43 32.74839 -86.05531 34047 ft 443 kts 322°
2026-04-23 21:43 32.79748 -86.09971 34049 ft 443 kts 322°
2026-04-23 21:44 32.84646 -86.14405 34053 ft 443 kts 322°
2026-04-23 21:44 32.89549 -86.18852 34049 ft 443 kts 322°
2026-04-23 21:45 32.94439 -86.23294 34044 ft 443 kts 322°
2026-04-23 21:45 32.99350 -86.27761 34059 ft 444 kts 322°
2026-04-23 21:46 33.04280 -86.32247 34060 ft 444 kts 321°
2026-04-23 21:46 33.09177 -86.36714 34065 ft 444 kts 321°
2026-04-23 21:47 33.14077 -86.41189 34064 ft 444 kts 321°
2026-04-23 21:47 33.18988 -86.45682 34060 ft 445 kts 321°
2026-04-23 21:48 33.23878 -86.50162 34055 ft 445 kts 321°
2026-04-23 21:48 33.28815 -86.54689 34051 ft 445 kts 321°
2026-04-23 21:49 33.33712 -86.59188 34046 ft 445 kts 321°
2026-04-23 21:49 33.38627 -86.63708 34064 ft 445 kts 321°
2026-04-23 21:50 33.43531 -86.68226 34064 ft 445 kts 321°
2026-04-23 21:50 33.48430 -86.72750 34071 ft 445 kts 321°
2026-04-23 21:51 33.53323 -86.77269 34077 ft 445 kts 321°
2026-04-23 21:51 33.58228 -86.81808 34070 ft 445 kts 321°
2026-04-23 21:52 33.63120 -86.86343 34066 ft 445 kts 321°
2026-04-23 21:52 33.67462 -86.91540 34059 ft 442 kts 305°
2026-04-23 21:53 33.70677 -86.97831 34044 ft 441 kts 298°
2026-04-23 21:53 33.73621 -87.04311 34017 ft 441 kts 297°
2026-04-23 21:54 33.76511 -87.10788 34020 ft 441 kts 297°
2026-04-23 21:54 33.79422 -87.17273 34023 ft 441 kts 297°
2026-04-23 21:55 33.82358 -87.23779 34033 ft 441 kts 297°
2026-04-23 21:55 33.85279 -87.30249 34038 ft 441 kts 297°
2026-04-23 21:56 33.88182 -87.36693 34038 ft 440 kts 297°
2026-04-23 21:56 33.91094 -87.43171 34027 ft 440 kts 297°
2026-04-23 21:57 33.94010 -87.49672 34030 ft 440 kts 297°
2026-04-23 21:57 33.96915 -87.56158 34024 ft 440 kts 297°
2026-04-23 21:58 33.99818 -87.62652 34016 ft 440 kts 297°
2026-04-23 21:58 34.02722 -87.69110 33996 ft 440 kts 299°
2026-04-23 21:59 34.05999 -87.75329 34004 ft 440 kts 302°
2026-04-23 21:59 34.09341 -87.81533 34007 ft 439 kts 302°
2026-04-23 22:00 34.14320 -87.90831 34003 ft 439 kts 301°
2026-04-23 22:00 34.17610 -87.96996 34003 ft 439 kts 301°
2026-04-23 22:01 34.20914 -88.03230 34005 ft 438 kts 301°
2026-04-23 22:01 34.24100 -88.09592 34011 ft 448 kts 300°
2026-04-23 22:02 34.27312 -88.16053 33994 ft 449 kts 300°
2026-04-23 22:02 34.30515 -88.22500 33996 ft 449 kts 300°
2026-04-23 22:03 34.33735 -88.28994 33977 ft 449 kts 300°
2026-04-23 22:03 34.35324 -88.32200 33377 ft 447 kts 300°
2026-04-23 22:03 34.36931 -88.35445 32726 ft 445 kts 300°
2026-04-23 22:04 34.38498 -88.38614 32131 ft 441 kts 300°
2026-04-23 22:04 34.40076 -88.41805 31539 ft 438 kts 300°
2026-04-23 22:04 34.41622 -88.44937 30961 ft 435 kts 300°
2026-04-23 22:04 34.43182 -88.48099 30370 ft 432 kts 300°
2026-04-23 22:05 34.44707 -88.51193 29736 ft 430 kts 300°
2026-04-23 22:05 34.46243 -88.54312 29112 ft 427 kts 300°
2026-04-23 22:05 34.47750 -88.57375 28550 ft 423 kts 300°
2026-04-23 22:05 34.49246 -88.60420 28005 ft 419 kts 300°
2026-04-23 22:06 34.50741 -88.63466 27457 ft 415 kts 300°
2026-04-23 22:06 34.52198 -88.66435 26906 ft 412 kts 300°
2026-04-23 22:06 34.53667 -88.69432 26348 ft 410 kts 300°
2026-04-23 22:06 34.55104 -88.72366 25807 ft 407 kts 300°
2026-04-23 22:07 34.56551 -88.75323 25257 ft 405 kts 300°
2026-04-23 22:07 34.57977 -88.78238 24719 ft 403 kts 300°
2026-04-23 22:07 34.59415 -88.81180 24170 ft 402 kts 300°
2026-04-23 22:07 34.60841 -88.84100 23610 ft 401 kts 300°
2026-04-23 22:08 34.62249 -88.86988 23132 ft 396 kts 299°
2026-04-23 22:08 34.63514 -88.89905 22997 ft 383 kts 291°
2026-04-23 22:08 34.64353 -88.92939 22530 ft 378 kts 285°
2026-04-23 22:08 34.65052 -88.96068 21607 ft 387 kts 284°
2026-04-23 22:09 34.65728 -88.99222 20867 ft 391 kts 284°
2026-04-23 22:09 34.66412 -89.02413 20422 ft 385 kts 284°
2026-04-23 22:09 34.67088 -89.05538 19898 ft 383 kts 285°
2026-04-23 22:09 34.67761 -89.08620 19434 ft 378 kts 285°
2026-04-23 22:10 34.68465 -89.11703 18887 ft 377 kts 286°
2026-04-23 22:10 34.69174 -89.14766 18458 ft 372 kts 286°
2026-04-23 22:10 34.69871 -89.17772 17889 ft 370 kts 286°
2026-04-23 22:10 34.70570 -89.20789 17322 ft 368 kts 286°
2026-04-23 22:11 34.71252 -89.23728 16841 ft 364 kts 286°
2026-04-23 22:11 34.71932 -89.26697 16222 ft 363 kts 285°
2026-04-23 22:11 34.72591 -89.29637 15716 ft 360 kts 285°
2026-04-23 22:11 34.73248 -89.32587 15260 ft 356 kts 285°
2026-04-23 22:12 34.73883 -89.35447 14924 ft 348 kts 285°
2026-04-23 22:12 34.74509 -89.38269 14604 ft 341 kts 284°
2026-04-23 22:12 34.75116 -89.41001 14286 ft 334 kts 284°
2026-04-23 22:12 34.75718 -89.43720 14046 ft 329 kts 284°
2026-04-23 22:13 34.76313 -89.46415 13992 ft 329 kts 284°
2026-04-23 22:13 34.76957 -89.49095 13912 ft 338 kts 289°
2026-04-23 22:13 34.78010 -89.51701 13420 ft 344 kts 299°
2026-04-23 22:13 34.79257 -89.54181 12780 ft 346 kts 301°
2026-04-23 22:14 34.80533 -89.56651 12354 ft 340 kts 301°
2026-04-23 22:14 34.81763 -89.59043 12039 ft 332 kts 300°
2026-04-23 22:14 34.82970 -89.61407 11732 ft 324 kts 300°
2026-04-23 22:14 34.84149 -89.63731 11438 ft 321 kts 300°
2026-04-23 22:15 34.85310 -89.66032 11132 ft 320 kts 300°
2026-04-23 22:15 34.86484 -89.68358 10836 ft 319 kts 300°
2026-04-23 22:15 34.87636 -89.70642 10537 ft 318 kts 300°
2026-04-23 22:15 34.88795 -89.72938 10239 ft 316 kts 300°
2026-04-23 22:16 34.89936 -89.75211 9954 ft 315 kts 299°
2026-04-23 22:16 34.91072 -89.77465 9766 ft 305 kts 300°
2026-04-23 22:16 34.92158 -89.79619 9619 ft 294 kts 299°
2026-04-23 22:16 34.93219 -89.81727 9324 ft 289 kts 298°
2026-04-23 22:17 34.94381 -89.83741 8883 ft 292 kts 310°
2026-04-23 22:17 34.95959 -89.85222 8629 ft 291 kts 331°
2026-04-23 22:17 34.97916 -89.85897 8377 ft 289 kts 352°
2026-04-23 22:17 34.99895 -89.86014 8112 ft 286 kts 357°
2026-04-23 22:18 35.01875 -89.86035 7920 ft 278 kts 358°
2026-04-23 22:18 35.03774 -89.86049 7807 ft 269 kts 358°
2026-04-23 22:18 35.05594 -89.86069 7711 ft 259 kts 357°
2026-04-23 22:18 35.07386 -89.86096 7450 ft 257 kts 356°
2026-04-23 22:19 35.09187 -89.86130 7128 ft 258 kts 357°
2026-04-23 22:19 35.10997 -89.86167 6822 ft 259 kts 356°
2026-04-23 22:19 35.12800 -89.86202 6566 ft 257 kts 356°
2026-04-23 22:19 35.14571 -89.86238 6267 ft 258 kts 356°
2026-04-23 22:20 35.16357 -89.86276 6048 ft 252 kts 356°
2026-04-23 22:20 35.18090 -89.86313 5983 ft 250 kts 357°
2026-04-23 22:20 35.19842 -89.86350 5970 ft 251 kts 356°
2026-04-23 22:20 35.21579 -89.86389 5963 ft 251 kts 356°
2026-04-23 22:21 35.23330 -89.86430 5961 ft 251 kts 356°
2026-04-23 22:21 35.25051 -89.86465 5794 ft 250 kts 357°
2026-04-23 22:21 35.26763 -89.86768 5367 ft 248 kts 335°
2026-04-23 22:21 35.28065 -89.88063 4935 ft 238 kts 296°
2026-04-23 22:22 35.28439 -89.89939 4578 ft 227 kts 261°
2026-04-23 22:22 35.28232 -89.91198 4340 ft 223 kts 249°
2026-04-23 22:22 35.27561 -89.93568 3854 ft 219 kts 246°
2026-04-23 22:22 35.27211 -89.94725 3532 ft 218 kts 245°
2026-04-23 22:23 35.26544 -89.96366 3115 ft 211 kts 229°
2026-04-23 22:23 35.25431 -89.97433 2974 ft 205 kts 201°
2026-04-23 22:23 35.24038 -89.97744 2974 ft 205 kts 183°
2026-04-23 22:23 35.22601 -89.97736 2966 ft 205 kts 179°
2026-04-23 22:24 35.21190 -89.97682 2712 ft 205 kts 180°
2026-04-23 22:24 35.19762 -89.97627 2329 ft 204 kts 179°
2026-04-23 22:24 35.19486 -89.97618 2275 ft 203 kts 179°
2026-04-23 22:25 35.18101 -89.97575 1945 ft 207 kts 179°
2026-04-23 22:25 35.16688 -89.97485 1845 ft 199 kts 178°
2026-04-23 22:25 35.15788 -89.97425 1923 ft 187 kts 179°
2026-04-23 22:25 35.14519 -89.97382 1678 ft 177 kts 180°
2026-04-23 22:26 35.13382 -89.97355 1675 ft 148 kts 181°
2026-04-23 22:26 35.12438 -89.97366 1515 ft 129 kts 180°
2026-04-23 22:26 35.11570 -89.97362 1407 ft 123 kts 184°
2026-04-23 22:26 35.10694 -89.97375 1310 ft 127 kts 182°
2026-04-23 22:27 35.09805 -89.97379 1250 ft 130 kts 182°
2026-04-23 22:27 35.08885 -89.97366 1112 ft 134 kts 180°
2026-04-23 22:27 35.07656 -89.97315 880 ft 132 kts 181°
2026-04-23 22:27 35.07043 -89.97314 717 ft 127 kts 181°
2026-04-23 22:28 35.06164 -89.97322 524 ft 127 kts 182°
2026-04-23 22:28 35.05297 -89.97310 403 ft 122 kts 180°
2026-04-23 22:28 35.04460 -89.97293 305 ft 110 kts 178°
2026-04-23 22:28 35.03871 -89.97275 316 ft 55 kts 178°
2026-04-23 22:29 35.03599 -89.97266 322 ft 30 kts 179°
2026-04-23 22:29 35.03387 -89.97280 326 ft 33 kts 187°
2026-04-23 22:29 35.03221 -89.97359 327 ft 10 kts 234°
2026-04-23 22:29 35.03279 -89.97437 329 ft 24 kts 352°
2026-04-23 22:30 35.03450 -89.97442 327 ft 24 kts 359°
2026-04-23 22:30 35.03615 -89.97447 323 ft 24 kts 358°
2026-04-23 22:30 35.03782 -89.97455 321 ft 23 kts
2026-04-23 22:30 35.03929 -89.97453 320 ft 20 kts 357°
2026-04-23 22:31 35.04073 -89.97458 317 ft 22 kts 358°
2026-04-23 22:31 35.04224 -89.97464 316 ft 21 kts 359°
2026-04-23 22:31 35.04369 -89.97462 313 ft 21 kts
2026-04-23 22:31 35.04528 -89.97466 309 ft 24 kts 357°
2026-04-23 22:32 35.04694 -89.97471 305 ft 24 kts 360°
2026-04-23 22:32 35.04866 -89.97473 297 ft 26 kts
2026-04-23 22:32 35.05048 -89.97477 296 ft 25 kts 358°
2026-04-23 22:32 35.05222 -89.97481 293 ft 25 kts 359°
2026-04-23 22:33 35.05402 -89.97487 288 ft 25 kts 357°
2026-04-23 22:33 35.05572 -89.97492 287 ft 24 kts
2026-04-23 22:33 35.05743 -89.97487 283 ft 24 kts
2026-04-23 22:33 35.05893 -89.97497 284 ft 20 kts 346°
2026-04-23 22:34 35.06028 -89.97541 280 ft 21 kts 356°
2026-04-23 22:34 35.06178 -89.97545 274 ft 22 kts 359°
2026-04-23 22:34 35.06289 -89.97544 271 ft 10 kts
2026-04-23 22:34 35.06330 -89.97568 269 ft 5 kts 273°
2026-04-23 22:35 35.06329 -89.97642 268 ft 11 kts 269°
2026-04-23 22:35 35.06326 -89.97749 270 ft 14 kts 266°
2026-04-23 22:35 35.06351 -89.97849 270 ft 14 kts 278°
2026-04-23 22:35 35.06315 -89.97891 270 ft 7 kts 179°
2026-04-23 22:36 35.06281 -89.97892 270 ft 0 kts 181°